EW1617 Weather Reports


Display with metric or nautical units.
time (UTC)temp
F
wind
direction
speed
MPH
gust
MPH
rain 1hr
in
rain 24hr
in
rain mn
in
humidity
%
barometer
mb
20260903220007 64 117 7.0 9.0 0.00 0.06 0.00 74 1010.2
20260903215507 64 153 7.0 10.0 0.00 0.06 0.00 75 1010.2
20260903215007 64 162 7.0 10.0 0.00 0.06 0.00 77 1010.2
20260903214507 64 126 5.0 9.0 0.00 0.06 0.00 79 1010.2
20260903214007 63 153 8.0 9.0 0.00 0.06 0.00 76 1010.2
20260903213506 63 99 8.0 12.0 0.00 0.06 0.00 75 1010.3
20260903213007 63 135 8.0 12.0 0.00 0.06 0.00 76 1010.5
20260903212507 63 144 9.0 11.0 0.00 0.06 0.00 76 1010.5
20260903212007 63 171 8.0 9.0 0.00 0.06 0.00 76 1010.5
20260903211507 63 135 7.0 12.0 0.00 0.06 0.00 75 1010.5
20260903211007 64 162 8.0 9.0 0.00 0.06 0.00 77 1010.5
20260903210507 64 172 7.0 9.0 0.00 0.06 0.00 83 1010.2
20260903210007 64 180 6.0 8.0 0.00 0.06 0.00 89 1010.2
20260903205507 63 171 6.0 9.0 0.00 0.06 0.00 88 1010.2
20260903205007 63 144 8.0 10.0 0.00 0.06 0.00 86 1010.2
20260903204507 63 171 7.0 9.0 0.00 0.06 0.00 86 1010.2
20260903204007 63 117 7.0 9.0 0.00 0.06 0.00 86 1010.2
20260903203506 63 135 6.0 7.0 0.00 0.06 0.00 87 1010.2
20260903203007 63 117 6.0 9.0 0.00 0.06 0.00 86 1010.2
20260903202507 63 126 5.0 6.0 0.00 0.06 0.00 86 1010.2
20260903202007 63 126 5.0 6.0 0.00 0.06 0.00 87 1010.2
20260903201506 63 153 7.0 8.0 0.00 0.06 0.00 84 1010.2
20260903201007 64 153 6.0 11.0 0.00 0.06 0.00 84 1010.2
20260903200507 64 171 8.0 10.0 0.00 0.06 0.00 85 1010.2
20260903200007 65 90 5.0 7.0 0.00 0.06 0.00 88 1010.2
20260903195507 64 135 6.0 8.0 0.00 0.06 0.00 87 1010.2
20260903195007 65 117 7.0 11.0 0.00 0.06 0.00 86 1010.2
20260903194507 64 135 4.0 5.0 0.00 0.06 0.00 91 1010.2
20260903194007 64 153 8.0 9.0 0.00 0.06 0.00 87 1010.2
20260903193507 64 54 5.0 8.0 0.00 0.06 0.00 92 1010.2
20260903193007 63 135 9.0 11.0 0.00 0.06 0.00 91 1010.2
20260903192507 63 189 5.0 9.0 0.00 0.06 0.00 91 1010.2
20260903192007 63 180 7.0 9.0 0.00 0.06 0.00 91 1010.2
20260903191506 63 153 7.0 9.0 0.00 0.06 0.00 93 1010.2
20260903191007 62 162 8.0 9.0 0.00 0.06 0.00 94 1010.3
20260903190507 61 99 6.0 7.0 0.00 0.06 0.00 95 1010.5
20260903190007 61 144 7.0 8.0 0.00 0.06 0.00 95 1010.5
20260903185506 61 180 8.0 10.0 0.00 0.06 0.00 95 1010.5
20260903185007 61 153 7.0 9.0 0.00 0.06 0.00 95 1010.5
20260903184507 61 144 8.0 10.0 0.00 0.06 0.00 95 1010.5
20260903184007 61 135 7.0 8.0 0.00 0.06 0.00 95 1010.5
20260903183507 62 108 9.0 11.0 0.00 0.06 0.00 95 1010.5
20260903183007 62 198 6.0 7.0 0.00 0.06 0.00 96 1010.3
20260903182508 61 153 5.0 5.0 0.00 0.06 0.00 97 1010.2
20260903182007 61 135 1.0 3.0 0.00 0.06 0.00 97 1010.2
20260903181507 61 180 4.0 7.0 0.00 0.06 0.00 97 1010.3
20260903181007 61 153 4.0 7.0 0.00 0.06 0.00 97 1010.5
20260903180507 61 153 4.0 7.0 0.00 0.06 0.00 98 1010.4
20260903180006 61 117 2.0 4.0 0.00 0.06 0.00 98 1010.2
20260903175507 61 153 3.0 5.0 0.00 0.06 0.00 98 1010.2
20260903175008 61 135 2.0 5.0 0.00 0.06 0.00 99 1010.2
20260903174506 60 153 2.0 6.0 0.00 0.06 0.00 99 1010.2
20260903174007 60 180 0.0 1.0 0.00 0.06 0.00 99 1010.2
20260903173507 59 180 1.0 4.0 0.00 0.06 0.00 99 1010.2
20260903173007 59 171 1.0 3.0 0.00 0.06 0.00 99 1010.2
20260903172506 59 135 1.0 3.0 0.00 0.06 0.00 99 1010.2
20260903172008 58 135 1.0 4.0 0.00 0.06 0.00 99 1010.2
20260903171506 58 135 0.0 1.0 0.00 0.06 0.00 99 1010.2
20260903171007 58 135 0.0 0.0 0.00 0.06 0.00 99 1010.4
20260903170507 57 135 0.0 0.0 0.00 0.06 0.00 99 1010.5
20260903170007 57 135 1.0 6.0 0.00 0.06 0.00 99 1010.5
20260903165507 57 135 2.0 5.0 0.00 0.06 0.00 99 1010.5
20260903165007 56 135 2.0 4.0 0.00 0.06 0.00 99 1010.5
20260903164507 56 135 0.0 0.0 0.00 0.06 0.00 99 1010.5
20260903164007 56 135 0.0 1.0 0.00 0.06 0.00 99 1010.5
20260903163507 55 135 0.0 0.0 0.00 0.06 0.00 99 1010.5
20260903163007 55 135 0.0 1.0 0.00 0.06 0.00 99 1010.5
20260903162507 55 135 0.0 0.0 0.00 0.06 0.00 99 1010.5
20260903162007 55 135 0.0 0.0 0.00 0.06 0.00 99 1010.5
20260903161506 55 135 0.0 1.0 0.00 0.06 0.00 99 1010.5
20260903161007 55 162 1.0 2.0 0.00 0.06 0.00 99 1010.5
20260903160507 55 135 3.0 6.0 0.00 0.05 0.00 99 1010.5
20260903160007 55 180 1.0 5.0 0.00 0.05 0.00 99 1010.5
20260903155507 55 126 1.0 5.0 0.00 0.05 0.00 99 1010.5
20260903155007 55 108 3.0 5.0 0.00 0.05 0.00 99 1010.5
20260903154507 55 162 2.0 4.0 0.00 0.05 0.00 99 1010.5
20260903154007 55 117 4.0 5.0 0.00 0.05 0.00 99 1010.5
20260903153506 55 153 3.0 5.0 0.00 0.05 0.00 99 1010.5
20260903153007 55 99 2.0 5.0 0.00 0.05 0.00 99 1010.5
20260903152507 55 144 1.0 7.0 0.00 0.05 0.00 99 1010.5
20260903152008 55 126 3.0 7.0 0.00 0.05 0.00 99 1010.5
20260903151507 55 18 1.0 2.0 0.00 0.05 0.00 99 1010.4
20260903151007 55 81 3.0 5.0 0.00 0.04 0.00 99 1010.5
20260903150507 55 199 5.0 9.0 0.00 0.04 0.00 99 1010.5
20260903150007 55 190 3.0 6.0 0.00 0.04 0.00 99 1010.2
20260903145506 55 171 5.0 7.0 0.00 0.04 0.00 99 1010.2
20260903145007 55 153 7.0 9.0 0.00 0.04 0.00 99 1010.2
20260903144507 55 154 2.0 4.0 0.00 0.04 0.00 99 1010.2
20260903144006 55 99 2.0 5.0 0.00 0.04 0.00 99 1010.2
20260903143507 54 99 1.0 4.0 0.00 0.04 0.00 99 1010.2
20260903143008 54 162 2.0 5.0 0.00 0.04 0.00 99 1010.2
20260903142506 54 99 1.0 6.0 0.00 0.04 0.00 99 1010.2
20260903142007 54 135 2.0 6.0 0.00 0.04 0.00 99 1010.0
20260903141507 54 135 0.0 1.0 0.00 0.03 0.00 99 1009.8
20260903141007 54 135 0.0 1.0 0.00 0.03 0.00 99 1009.8
20260903140507 54 144 1.0 5.0 0.00 0.03 0.00 99 1009.8
20260903140007 54 180 2.0 4.0 0.00 0.03 0.00 99 1009.8
20260903135507 54 180 0.0 0.0 0.00 0.03 0.00 99 1009.8
20260903135007 54 234 1.0 5.0 0.00 0.03 0.00 99 1009.8
20260903134507 54 270 1.0 3.0 0.00 0.03 0.00 99 1009.8
20260903134007 54 199 1.0 3.0 0.00 0.03 0.00 99 1009.8
20260903133507 54 365 0.0 1.0 0.00 0.03 0.00 99 1009.8
20260903133007 54 299 1.0 3.0 0.00 0.03 0.00 99 1009.8
20260903132506 54 81 1.0 2.0 0.00 0.03 0.00 99 1009.8
20260903132008 55 27 1.0 4.0 0.00 0.02 0.00 99 1009.8
20260903131507 55 153 0.0 2.0 0.00 0.02 0.00 99 1009.7
20260903131007 55 171 1.0 4.0 0.00 0.02 0.00 99 1009.5
20260903130507 55 34 0.0 2.0 0.00 0.02 0.00 99 1009.8
20260903130007 55 81 1.0 4.0 0.00 0.02 0.00 99 1009.8
20260903125506 55 198 2.0 5.0 0.00 0.02 0.00 99 1009.8
20260903125007 55 126 0.0 1.0 0.00 0.02 0.00 99 1009.8
20260903124507 54 190 3.0 5.0 0.00 0.01 0.00 99 1009.8
20260903124007 54 191 1.0 3.0 0.00 0.01 0.00 99 1009.8
20260903123507 54 180 5.0 7.0 0.00 0.01 0.00 99 1009.8
20260903123007 54 117 2.0 5.0 0.00 0.01 0.00 99 1009.8
20260903122507 54 135 1.0 4.0 0.00 0.01 0.00 99 1009.8
20260903122007 54 135 0.0 2.0 0.00 0.01 0.00 99 1009.8
20260903121507 54 135 0.0 5.0 0.00 0.01 0.00 99 1009.8
20260903121007 54 171 1.0 5.0 0.00 0.01 0.00 99 1009.8
20260903120507 54 180 1.0 3.0 0.00 0.01 0.00 99 1009.8
20260903120007 54 180 0.0 1.0 0.00 0.01 0.00 99 1009.8
20260903115506 54 198 2.0 5.0 0.00 0.01 0.00 99 1009.8
20260903115007 54 99 2.0 5.0 0.00 0.01 0.00 99 1009.8
20260903114507 54 90 0.0 2.0 0.00 0.01 0.00 99 1009.8
20260903114007 54 135 1.0 2.0 0.00 0.01 0.00 99 1009.8
20260903113507 54 315 0.0 0.0 0.00 0.01 0.00 99 1009.8
20260903113007 54 234 1.0 3.0 0.00 0.01 0.00 99 1009.8
20260903112507 54 158 2.0 4.0 0.00 0.01 0.00 99 1009.8
20260903112007 54 145 1.0 2.0 0.00 0.01 0.00 99 1009.8
20260903111507 54 127 3.0 5.0 0.00 0.01 0.00 99 1009.8
20260903111006 55 153 1.0 5.0 0.00 0.01 0.00 99 1009.8
20260903110508 55 113 2.0 5.0 0.00 0.01 0.00 99 1009.8
20260903110012 55 90 1.0 2.0 0.00 0.01 0.00 99 1009.8
20260903105507 55 90 0.0 0.0 0.00 0.01 0.00 99 1009.8
20260903105007 55 90 0.0 0.0 0.00 0.01 0.00 99 1009.8
20260903104507 55 90 1.0 2.0 0.00 0.01 0.00 99 1009.8
20260903104007 55 126 1.0 4.0 0.00 0.01 0.00 99 1009.8
20260903103506 55 198 2.0 5.0 0.00 0.01 0.00 99 1009.8
20260903103007 55 171 1.0 4.0 0.00 0.01 0.00 99 1009.8
20260903102507 55 270 1.0 2.0 0.00 0.01 0.00 99 1009.8
20260903102007 55 270 0.0 0.0 0.00 0.01 0.00 99 1009.8
20260903101507 55 270 0.0 1.0 0.00 0.01 0.00 99 1009.8
20260903101007 55 308 1.0 5.0 0.00 0.01 0.00 99 1009.8
20260903100507 55 299 1.0 3.0 0.00 0.01 0.00 99 1009.8
20260903100007 55 270 1.0 4.0 0.00 0.01 0.00 99 1009.8
20260903095507 55 108 3.0 5.0 0.00 0.01 0.00 99 1009.8
20260903095006 55 0 0.0 0.0 0.00 0.01 0.00 99 1009.8
20260903094507 55 126 1.0 3.0 0.00 0.01 0.00 99 1009.5
20260903094007 55 218 2.0 4.0 0.00 0.01 0.00 99 1009.8
20260903093507 55 54 1.0 3.0 0.00 0.01 0.00 99 1009.8
20260903093006 55 45 0.0 0.0 0.00 0.01 0.00 99 1009.8
20260903092507 55 45 0.0 1.0 0.00 0.01 0.00 99 1009.8
20260903092007 55 36 1.0 3.0 0.00 0.01 0.00 99 1009.8
20260903091507 55 0 0.0 2.0 0.00 0.01 0.00 99 1009.8
20260903091006 55 144 1.0 3.0 0.00 0.01 0.00 99 1009.8
20260903090507 55 169 2.0 5.0 0.00 0.01 0.00 99 1009.8
20260903090007 55 135 0.0 1.0 0.00 0.01 0.00 99 1009.8
20260903085507 56 126 2.0 5.0 0.00 0.01 0.00 99 1009.8
20260903085007 56 72 1.0 5.0 0.00 0.01 0.00 99 1009.8
20260903084507 56 117 1.0 2.0 0.00 0.01 0.00 99 1009.8
20260903084006 56 180 0.0 1.0 0.00 0.01 0.00 99 1009.8
20260903083507 56 180 1.0 4.0 0.00 0.01 0.00 99 1009.9
20260903083007 56 144 2.0 4.0 0.00 0.01 0.00 99 1010.0
20260903082507 56 144 1.0 3.0 0.00 0.00 0.00 99 1009.8
20260903082007 56 108 0.0 1.0 0.00 0.00 0.00 99 1009.8
20260903081508 56 180 1.0 2.0 0.00 0.00 0.00 99 1009.8
20260903081007 56 180 1.0 2.0 0.00 0.00 0.00 99 1010.0
20260903080507 56 180 1.0 5.0 0.00 0.00 0.00 99 1010.0
20260903080007 56 180 1.0 4.0 0.00 0.00 0.00 99 1010.2
20260903075507 56 135 2.0 5.0 0.00 0.00 0.00 99 1010.2
20260903075006 56 126 2.0 5.0 0.00 0.00 0.00 99 1010.2
20260903074507 56 99 1.0 5.0 0.00 0.00 0.00 99 1010.2
20260903074006 56 90 1.0 3.0 0.00 0.00 0.00 99 1010.2
20260903073507 56 117 1.0 2.0 0.00 0.00 0.00 99 1010.1
20260903073007 56 153 4.0 8.0 0.00 0.00 0.00 99 1010.1
20260903072507 56 208 3.0 5.0 0.00 0.00 0.00 99 1009.9
20260903072007 56 162 2.0 5.0 0.00 0.00 0.00 99 1009.8
20260903071508 56 135 3.0 7.0 0.00 0.00 0.00 99 1009.8
20260903071007 56 153 5.0 7.0 0.00 0.00 0.00 99 1009.8
20260903070507 56 144 2.0 5.0 0.00 0.00 0.00 99 1009.8
20260903070007 56 216 3.0 7.0 0.00 0.00 0.00 99 1009.8
20260903065507 56 153 4.0 5.0 0.00 0.17 0.00 99 1009.8
20260903065007 56 162 3.0 5.0 0.00 0.17 0.00 99 1009.8
20260903064506 56 144 5.0 8.0 0.00 0.17 0.00 99 1009.8
20260903064007 56 90 3.0 4.0 0.00 0.17 0.00 99 1009.8
20260903063507 56 99 2.0 7.0 0.00 0.17 0.00 99 1009.8
20260903063007 56 113 5.0 6.0 0.00 0.17 0.00 99 1009.8
20260903062507 56 144 3.0 6.0 0.00 0.17 0.00 99 1009.8
20260903062007 56 144 4.0 7.0 0.00 0.17 0.00 99 1009.8
20260903061507 56 146 3.0 5.0 0.00 0.17 0.00 99 1009.8
20260903061007 56 162 5.0 6.0 0.00 0.17 0.00 99 1009.8
20260903060507 56 153 3.0 6.0 0.00 0.17 0.00 99 1009.8
20260903060007 56 144 4.0 6.0 0.00 0.17 0.00 99 1009.8
20260903055506 57 189 5.0 7.0 0.00 0.17 0.00 99 1009.8
20260903055007 57 153 3.0 5.0 0.00 0.17 0.00 99 1009.8
20260903054507 57 144 5.0 6.0 0.00 0.17 0.00 99 1009.8
20260903054007 57 162 2.0 5.0 0.00 0.17 0.00 99 1009.7
20260903053507 57 153 6.0 7.0 0.00 0.17 0.00 99 1009.8
20260903053007 57 171 5.0 7.0 0.00 0.17 0.00 99 1009.8
20260903052507 57 135 5.0 9.0 0.00 0.17 0.00 99 1009.8
20260903052006 57 158 5.0 7.0 0.00 0.17 0.00 99 1009.8
20260903051508 57 153 5.0 7.0 0.00 0.17 0.00 99 1009.8
20260903051007 56 126 3.0 5.0 0.00 0.17 0.00 99 1009.8
20260903050507 56 144 1.0 3.0 0.00 0.17 0.00 99 1009.8
20260903050007 56 135 2.0 4.0 0.00 0.17 0.00 99 1009.8
20260903045507 56 126 3.0 5.0 0.00 0.17 0.00 99 1009.8
20260903045007 56 126 3.0 5.0 0.00 0.17 0.00 99 1009.8
20260903044507 56 117 2.0 3.0 0.00 0.17 0.00 99 1009.8
20260903044007 56 153 1.0 3.0 0.00 0.17 0.00 99 1009.5
20260903043507 57 153 1.0 2.0 0.00 0.17 0.00 99 1009.5
20260903043007 57 162 1.0 3.0 0.00 0.17 0.00 99 1009.5
20260903042508 57 108 1.0 3.0 0.00 0.17 0.00 99 1009.5
20260903042007 57 108 2.0 5.0 0.00 0.17 0.00 99 1009.5
20260903041508 57 36 2.0 5.0 0.00 0.17 0.00 99 1009.5
20260903041007 57 153 1.0 3.0 0.00 0.17 0.00 99 1009.5
20260903040507 57 162 1.0 2.0 0.00 0.17 0.00 99 1009.5
20260903040008 58 180 1.0 3.0 0.00 0.17 0.00 99 1009.3
20260903035507 58 180 2.0 5.0 0.00 0.17 0.00 99 1009.1
20260903035007 58 135 1.0 5.0 0.00 0.17 0.00 99 1009.1
20260903034507 58 99 1.0 3.0 0.00 0.17 0.00 99 1008.9
20260903034007 58 135 1.0 2.0 0.00 0.17 0.00 99 1008.8
20260903033507 58 135 2.0 5.0 0.00 0.17 0.00 99 1008.8
20260903033007 58 135 1.0 1.0 0.00 0.17 0.00 99 1008.8
20260903032507 59 180 2.0 4.0 0.00 0.17 0.00 99 1008.8
20260903032007 59 72 2.0 4.0 0.00 0.17 0.00 99 1008.8
20260903031507 59 189 1.0 3.0 0.00 0.17 0.00 99 1008.8
20260903031007 59 225 2.0 5.0 0.00 0.17 0.00 99 1008.5
20260903030507 59 135 3.0 5.0 0.00 0.17 0.00 99 1008.5
20260903030007 59 135 1.0 4.0 0.00 0.17 0.00 99 1008.5
20260903025507 59 126 3.0 7.0 0.00 0.17 0.00 99 1008.5
20260903025007 60 108 2.0 6.0 0.00 0.17 0.00 99 1008.5
20260903024507 60 207 1.0 2.0 0.00 0.17 0.00 99 1008.2
20260903024007 60 180 1.0 2.0 0.00 0.17 0.00 99 1008.1
20260903023507 60 169 1.0 5.0 0.00 0.17 0.00 99 1008.1
20260903023007 60 135 2.0 3.0 0.00 0.17 0.00 99 1008.1
20260903022507 60 144 3.0 6.0 0.00 0.17 0.00 99 1008.1
20260903022006 60 153 5.0 6.0 0.00 0.17 0.00 99 1008.1
20260903021507 60 144 1.0 5.0 0.00 0.17 0.00 99 1008.1
20260903021007 60 135 0.0 1.0 0.00 0.17 0.00 99 1008.1
20260903020507 60 135 3.0 7.0 0.00 0.17 0.00 99 1008.1
20260903020007 60 180 2.0 5.0 0.00 0.17 0.00 99 1007.9
20260903015507 60 135 1.0 5.0 0.00 0.17 0.00 99 1007.8
20260903015007 60 162 3.0 6.0 0.00 0.17 0.00 99 1007.8
20260903014507 60 117 1.0 2.0 0.00 0.17 0.00 99 1007.8
20260903014006 60 117 2.0 4.0 0.00 0.17 0.00 99 1007.8
20260903013507 60 198 0.0 2.0 0.00 0.17 0.00 99 1007.8
20260903013007 60 225 0.0 1.0 0.00 0.17 0.00 99 1007.8
20260903012507 60 261 0.0 1.0 0.00 0.17 0.00 99 1007.8
20260903012007 60 216 1.0 2.0 0.00 0.16 0.00 99 1007.8
20260903011507 60 135 5.0 6.0 0.00 0.16 0.00 99 1007.7
20260903011007 61 135 3.0 6.0 0.00 0.16 0.00 99 1007.5
20260903010512 61 135 5.0 6.0 0.00 0.16 0.00 99 1007.5
20260903010007 61 135 2.0 4.0 0.00 0.16 0.00 99 1007.5
20260903005507 61 144 2.0 6.0 0.00 0.16 0.00 99 1007.5
20260903005007 61 153 4.0 6.0 0.00 0.16 0.00 99 1007.5
20260903004507 61 144 5.0 8.0 0.00 0.16 0.00 99 1007.2
20260903004007 61 144 6.0 8.0 0.00 0.16 0.00 99 1007.2
20260903003507 61 146 5.0 7.0 0.00 0.16 0.00 99 1007.1
20260903003007 61 171 7.0 8.0 0.00 0.16 0.00 99 1007.1
20260903002508 61 117 4.0 9.0 0.00 0.16 0.00 99 1007.1
20260903002007 60 153 4.0 6.0 0.00 0.16 0.00 99 1007.1
20260903001507 60 144 6.0 7.0 0.00 0.16 0.00 99 1007.1
20260903001007 60 117 5.0 7.0 0.00 0.16 0.00 99 1007.1
20260903000507 60 162 2.0 6.0 0.00 0.16 0.00 99 1007.1
20260903000007 60 135 2.0 6.0 0.00 0.16 0.00 99 1007.1
20260902235507 60 162 4.0 8.0 0.00 0.16 0.00 99 1007.1
20260902235008 60 171 1.0 3.0 0.00 0.16 0.00 99 1007.1
20260902234507 60 117 6.0 9.0 0.00 0.16 0.00 99 1007.1
20260902234007 60 153 5.0 6.0 0.00 0.16 0.00 99 1007.1
20260902233507 59 162 5.0 7.0 0.00 0.16 0.00 99 1006.9
20260902233007 59 117 6.0 10.0 0.00 0.16 0.00 99 1007.0
20260902232507 59 135 8.0 8.0 0.00 0.16 0.00 99 1007.1
20260902232007 59 144 6.0 7.0 0.00 0.16 0.00 99 1007.1
20260902231507 59 153 5.0 7.0 0.00 0.16 0.00 99 1007.0
20260902231007 59 135 4.0 7.0 0.00 0.16 0.00 99 1006.8
20260902230507 59 135 7.0 8.0 0.00 0.15 0.00 99 1006.8
20260902230007 59 144 4.0 8.0 0.00 0.15 0.00 99 1006.8
20260902225507 59 144 4.0 10.0 0.00 0.15 0.00 99 1006.8
20260902225007 60 144 7.0 10.0 0.00 0.15 0.00 99 1006.8
20260902224508 60 153 6.0 7.0 0.00 0.15 0.00 99 1006.8
20260902224006 60 108 3.0 7.0 0.00 0.15 0.00 99 1006.8
20260902223508 60 153 7.0 9.0 0.00 0.15 0.00 99 1006.8
20260902223006 60 135 5.0 7.0 0.00 0.15 0.00 99 1006.6
20260902222512 60 198 3.0 5.0 0.00 0.15 0.00 99 1006.4
20260902222007 60 135 4.0 6.0 0.00 0.15 0.00 99 1006.4
20260902221507 60 153 3.0 6.0 0.00 0.15 0.00 99 1006.4
20260902221007 59 162 3.0 5.0 0.00 0.15 0.00 99 1006.5
20260902220507 59 108 1.0 4.0 0.00 0.15 0.00 99 1006.4